This demonstration page uses our WeatherBlox Daily Observations layout. Learn more.

Left ArrowRight Arrow

39.12711, -84.51439

Hourly Observations for May 20, 2022

Temp ( °F °C ) Dew Point ( °F °C ) Humidity (%) Winds ( mph kmh ) Pressure ( in mb ) Visibility ( mi km ) Precip ( " mm )
12:53 am 00:53 Clear 64 17.8 63 17.2 96 96 VRB 6 9 29.65 1004 10 16 0.00 0.00
1:53 am 01:53 Clear 64 17.8 63 17.2 96 96 S 5 7 29.65 1004 10 16 0.00 0.00
2:53 am 02:53 Partly Cloudy 66 18.9 64 17.8 93 93 SSW 6 9 29.62 1003 10 16 0.00 0.00
3:16 am 03:16 Mostly Cloudy with Nearby Thunderstorms 67 19.4 65 18.3 93 93 WSW 8 13 29.65 1004 9 14 0.00 0.00
3:31 am 03:31 Cloudy with Light Rain 67 19.4 65 18.3 93 93 VRB 3 6 29.63 1003 10 16 0.00 0.00
3:53 am 03:53 Mostly Cloudy with Light Rain 66 18.9 65 18.3 96 96 SE 5 7 29.61 1003 10 16 0.01 0.25
4:25 am 04:25 Cloudy with Nearby Thunderstorms 68 20 66 18.9 93 93 WSW 21 33 29.66 1004 4 6 0.03 0.76
4:33 am 04:33 Cloudy with Thunderstorms 68 20 67 19.4 96 96 SSW 12 19 29.65 1004 3 4 0.08 2.03
4:43 am 04:43 Cloudy with Thunderstorms 69 20.6 66 18.9 90 90 SW 17 28 29.66 1004 5 8 0.09 2.29
4:53 am 04:53 Cloudy with Nearby Thunderstorms 69 20.6 65 18.3 87 87 SW 13 20 29.65 1004 4 6 0.13 3.30
5:02 am 05:02 Cloudy with Thunderstorms 68 20 65 18.3 90 90 SW 12 19 29.66 1004 3 4 0.08 2.03
5:10 am 05:10 Cloudy with Strong Thunderstorms 67 19.4 66 18.9 97 97 S 10 17 29.62 1003 1 2 0.22 5.59
5:16 am 05:16 Cloudy with Thunderstorms 67 19.4 66 18.9 97 97 SW 7 11 29.62 1003 3 5 0.23 5.84
5:37 am 05:37 Cloudy with Nearby Thunderstorms 67 19.4 66 18.9 97 97 NW 20 31 29.67 1005 10 16 0.24 6.10
5:50 am 05:50 Cloudy with Nearby Thunderstorms 68 20 66 19 94 94 S 12 19 29.65 1004 10 16 0.24 6.10
5:53 am 05:53 Cloudy 67 19.4 66 18.9 97 97 VRB 7 11 29.66 1005 10 16 0.24 6.10
6:01 am 06:01 Cloudy 68 20 65 18.3 90 90 WNW 8 13 29.68 1005 10 16 0.00 0.00
6:18 am 06:18 Cloudy 67 19.4 66 18.9 97 97 NE 3 6 29.68 1005 10 16 0.00 0.00
6:53 am 06:53 Cloudy 67 19.4 66 18.9 97 97 NE 6 9 29.70 1006 10 16 0.00 0.00
7:53 am 07:53 Mostly Sunny 67 19.4 67 19.4 100 100 WSW 3 6 29.69 1006 10 16 0.00 0.00
8:53 am 08:53 Sunny 71 21.7 68 20 90 90 SSW 9 15 29.69 1006 10 16 0.00 0.00
9:53 am 09:53 Sunny 77 25 70 21.1 79 79 SSW 16 26 29.70 1006 10 16 0.00 0.00
10:53 am 10:53 Sunny 80 26.7 69 20.6 69 69 SSW 15 24 29.71 1006 10 16 0.00 0.00
11:53 am 11:53 Sunny 82 27.8 67 19.4 60 60 SW 20 31 29.72 1006 10 16 0.00 0.00
12:53 pm 12:53 Sunny 84 28.9 67 19.4 57 57 SW 17 28 29.73 1007 10 16 0.00 0.00
1:53 pm 13:53 Sunny 86 30 67 19.4 53 53 SSW 15 24 29.73 1007 10 16 0.00 0.00
2:53 pm 14:53 Sunny 86 30 65 18.3 49 49 S 23 37 29.72 1006 10 16 0.00 0.00
3:53 pm 15:53 Sunny 87 30.6 66 18.9 50 50 S 21 33 29.71 1006 10 16 0.00 0.00
4:53 pm 16:53 Sunny 87 30.6 66 18.9 50 50 SSW 21 33 29.72 1006 10 16 0.00 0.00
5:53 pm 17:53 Sunny 86 30 68 20 55 55 S 18 30 29.72 1006 10 16 0.00 0.00
6:53 pm 18:53 Sunny 85 29.4 68 20 57 57 S 15 24 29.72 1007 10 16 0.00 0.00
7:53 pm 19:53 Sunny 83 28.3 67 19.4 59 59 SSW 13 20 29.74 1007 10 16 0.00 0.00
8:53 pm 20:53 Clear 80 26.7 67 19.4 64 64 S 15 24 29.76 1008 10 16 0.00 0.00
9:53 pm 21:53 Clear 79 26.1 66 18.9 65 65 S 14 22 29.79 1009 10 16 0.00 0.00
10:53 pm 22:53 Clear 77 25 66 18.9 69 69 S 12 19 29.81 1009 10 16 0.00 0.00
11:53 pm 23:53 Clear 75 23.9 65 18.3 71 71 SSW 9 15 29.83 1010 10 16 0.00 0.00

Powered by AerisWeather